Regional Weather Roundup
Issued by NWS

Home | Current Version | Previous Version | Graphics & Text | Print | Product List | Glossary On
Versions: 1 2 3 4 5 6 7 8 9 10 11 12 13 14 15 16 17 18 19 20 21 22 23 24 25 26 27 28 29 30 31 32 33 34 35 36 37 38 39 40 41 42 43 44 45 46 47 48 49 50
000
ASUS43 KDMX 131103
RWRIA

WEATHER ROUNDUP FOR IOWA
NATIONAL WEATHER SERVICE DES MOINES IA
500 AM CST SAT FEB 13 2016

NOTE: "FAIR" INDICATES FEW OR NO CLOUDS BELOW 12,000 FEET WITH NO
SIGNIFICANT WEATHER AND/OR OBSTRUCTIONS TO VISIBILITY.

* - THESE STATIONS ARE NOT NWS STATIONS...THUS NOT UNDER NWS
QUALITY CONTROL.  THEY ALSO DO NOT REPORT WEATHER SUCH
AS PRECIPITATION OR FOG.

IAZ001>003-012>014-020>022-031>034-043>046-131200-
   NORTHWEST IOWA

CITY           SKY/WX    TMP DP  RH WIND       PRES   REMARKS
CARROLL *      CLOUDY     1  -6  71 NE5       30.61S WCI  -8
CHEROKEE *     CLOUDY     0  -6  78 E5        30.59F WCI -10
DENISON *      CLOUDY     1  -4  78 E6        30.59S WCI -10
LE MARS *      MOCLDY     1  -4  78 E6        30.60F WCI -10
ORANGE CITY *  MOCLDY     0  -6  78 E7        30.57S WCI -13
SHELDON *      CLOUDY    -2  -8  78 NE9       30.55F WCI -18
SIOUX CITY     CLOUDY     5  -4  66 SE8       30.60F WCI  -8
SPENCER        CLOUDY    -5 -11  75 N6        30.59F WCI -18
STORM LAKE *   PTCLDY     0  -8  71 NE8       30.57S WCI -15
$$

IAZ055>058-069>071-079>083-090>094-131200-
   SOUTHWEST IOWA

CITY           SKY/WX    TMP DP  RH WIND       PRES   REMARKS
ATLANTIC *     CLOUDY     5  -4  66 E8        30.62S WCI  -8
AUDUBON *      CLOUDY     1  -4  78 NE3       30.60S
CLARINDA *     CLOUDY    10   1  67 E8        30.64F WCI  -1
COUNCIL BLFS * CLOUDY     7   0  72 E7        30.60F WCI  -5
CRESTON *      CLOUDY     3  -4  72 NE8       30.61S WCI -10
HARLAN  *      CLOUDY     3  -4  72 E6        30.65S WCI  -8
LAMONI         CLOUDY     5  -2  72 NE8       30.60S WCI  -8
RED OAK *      CLOUDY     9   1  72 NE5       30.63F WCI   0
SHENANDOAH *   CLOUDY    12   1  62 E6G12     30.63F WCI   3
$$

IAZ047>049-059>061-072>074-084-131200-
   CENTRAL IOWA

CITY           SKY/WX    TMP DP  RH WIND       PRES   REMARKS
AMES           CLOUDY     1  -6  72 N9        30.63S WCI -14
ANKENY *       CLEAR      3  -4  72 N7        30.64F WCI  -9
BOONE *        CLOUDY     0  -8  71 N9        30.61R WCI -16
CHARITON *     CLOUDY     3  -4  72 NW5       30.62S WCI  -6
DES MOINES     CLOUDY     3  -5  69 N5        30.63S WCI  -6
GRINNELL*      PTCLDY     1  -4  78 CALM      30.61F
KNOXVILLE *    CLOUDY     3  -6  66 N6        30.62S WCI  -8
MARSHALLTOWN   CLOUDY    -3  -7  82 CALM      30.62S
NEWTON *       CLEAR      1  -6  71 N8        30.62F WCI -12
PELLA *        CLOUDY     3  -2  78 NW5       30.65S WCI  -6
$$

IAZ004>006-015-016-023>025-035-036-131200-
   NORTH CENTRAL IOWA

CITY           SKY/WX    TMP DP  RH WIND       PRES   REMARKS
ALGONA *       CLOUDY    -4  -8  84 N6        30.59S WCI -16
CLARION *      CLOUDY    -6 -13  71 NW6       30.61R WCI -18
ESTHERVILLE    CLOUDY    -6 -10  83 NW7       30.58F WCI -20
FORT DODGE *   CLOUDY    -2  -9  71 N3        30.62S
MASON CITY     CLOUDY    -6 -11  79 NW8       30.60R WCI -21
FOREST CITY *  CLEAR     -6  -9  84 N6        30.59S WCI -18
WEBSTER CITY * CLEAR     -4  -9  77 NW8       30.60S WCI -19
IOWA FALLS *     N/A     -6  -9  84 NW8       30.61R WCI -21
$$

IAZ007>011-017>019-026>030-037>042-050>054-066-131200-
   NORTHEAST IOWA

CITY           SKY/WX    TMP DP  RH WIND       PRES   REMARKS
CEDAR RAPIDS   CLOUDY     1  -5  75 NW6       30.61S WCI -10
CHARLES CITY * CLOUDY    -4 -15  59 N9        30.59F WCI -20
CLINTON *      CLEAR      0  -5  79 NW7       30.61S WCI -13
DECORAH *      PTCLDY    -6 -15  65 N7        30.57S WCI -20
DUBUQUE        CLOUDY     0 -10  63 N8        30.56S WCI -14
MONTICELLO *   CLEAR      0  -9  65 CALM      30.61S
OELWEIN *      CLEAR     -4 -13  65 N8        30.59S WCI -19
WATERLOO       CLOUDY    -5 -11  75 NW3       30.62S
$$

IAZ064-065-067-068-078-131200-
   EAST CENTRAL IOWA

CITY           SKY/WX    TMP DP  RH WIND       PRES   REMARKS
DAVENPORT      CLOUDY     1  -6  72 W6        30.62R WCI -10
IOWA CITY      CLOUDY     4  -6  63 N7        30.65S WCI  -8
MT. PLEASANT * CLOUDY     7   0  72 NW7       30.64S WCI  -5
MUSCATINE *    CLEAR      5  -4  66 NW6       30.65F WCI  -6
QUAD CITIES    PTCLDY     5  -6  60 NW7       30.62R WCI  -7
$$

IAZ062-063-075>077-085>089-095>099-131200-
   SOUTHEAST IOWA

CITY           SKY/WX    TMP DP  RH WIND       PRES   REMARKS
BURLINGTON     CLOUDY     5  -3  69 NW6       30.62S WCI  -6
FAIRFIELD *    CLEAR      1  -6  71 N7        30.63F WCI -11
FORT MADISON * CLEAR      5  -2  72 N7        30.63S WCI  -7
KEOKUK *       CLEAR      7  -2  66 NW5       30.63R WCI  -2
OSKALOOSA *      N/A      3  -2  78 N7        30.63F WCI  -9
OTTUMWA        CLOUDY     4  -1  80 N8        30.62F WCI  -9
WASHINGTON *   CLOUDY     3  -6  66 NW7       30.65S WCI  -9
$$

ABBREVIATIONS USED IN REMARKS
   TC - TEMPERATURES IN CELSIUS
  WCI - WIND CHILL INDEX
   HX - HEAT INDEX
  VSB - VISIBILITY
$$




USA.gov is the U.S. government's official web portal to all federal, state and local government web resources and services.